GFSMA_con_mlcape_336.txt.gz
CAPE
1073 918 1089 1180 1273 1121 907 959 1062 923 748 716 494 203 86 190 448 341 183 38 87 128 606 607 567 641 567 857 759 692 604 769 407 757 753 692 628 683 456 693 891 708 928
1187 1328 1373 1071 1074 995 705 704 851 728 637 604 908 864 697 537 347 227 356 37 136 153 226 51 115 407 430 371 402 410 614 675 710 660 673 681 915 630 673 764 1026 958 740
1093 1241 874 1075 937 1220 920 946 656 511 928 883 893 925 900 802 896 851 336 71 46 153 92 67 11 188 237 259 390 531 571 737 866 788 765 940 758 732 889 984 1028 908 883
1110 1591 1566 1246 1266 1380 738 521 286 352 454 607 556 727 993 869 422 411 58 48 232 74 33 68 92 30 83 246 217 242 293 487 684 822 782 748 866 898 813 581 601 706 738
2069 1965 1799 1772 1900 1021 642 622 570 695 611 757 994 1059 768 339 238 331 477 294 399 131 281 67 46 34 8 99 231 98 163 380 394 362 450 515 618 732 642 664 551 550 570
2153 2071 1663 1803 1742 892 688 572 583 320 722 925 695 947 1066 1055 830 683 458 549 371 474 471 414 284 307 75 50 24 34 141 179 254 291 386 388 364 401 385 452 496 524 486
2143 1647 1576 1493 1408 1289 841 761 610 786 797 530 948 746 615 604 646 688 648 654 653 640 532 439 557 553 173 126 69 33 67 133 155 265 292 323 330 342 364 302 321 338 402
1923 1864 1723 1469 1327 1129 963 430 332 449 580 574 487 537 390 225 82 118 49 54 134 392 455 464 335 194 153 38 0 0 0 0 0 0 0 29 30 28 142 170 174 219 244
1915 2238 1916 1618 1781 1691 913 474 397 606 432 540 477 609 193 144 131 116 75 16 5 9 3 0 0 0 0 0 0 0 0 0 0 0 0 6 9 2 0 0 0 0 34
2170 2233 2248 2092 1982 1072 1016 383 162 297 651 357 573 385 630 322 520 188 129 61 5 0 0 0 0 0 0 0 0 0 0 0 0 0 0 0 0 0 0 0 0 0 0
2440 2562 2602 2360 1967 1095 886 567 381 632 237 127 297 445 666 522 555 227 170 69 75 22 9 0 0 0 0 0 0 0 0 0 0 0 0 0 0 0 0 0 0 0 2
2360 2333 2648 2550 2049 1227 948 582 502 477 450 345 180 231 306 325 354 181 297 129 39 44 28 0 0 0 0 0 0 0 0 0 0 0 0 0 0 0 0 0 0 0 12
1792 2165 2808 2593 2094 1728 1146 766 1006 451 294 156 431 48 5 94 316 331 205 287 129 41 19 13 0 0 0 0 0 0 0 0 0 0 0 0 0 0 0 0 0 0 3
1500 2007 2695 2481 2248 1899 1502 1070 660 320 52 13 38 150 0 0 152 243 185 317 86 46 50 14 0 0 0 0 0 0 0 0 0 0 0 0 0 0 0 0 0 0 0
1674 2318 2563 2753 2483 2099 1812 1371 628 485 24 0 0 0 0 0 0 38 79 244 59 52 37 4 0 0 0 0 0 0 0 0 0 0 0 0 0 0 0 0 0 0 0
2068 2208 2747 2685 2620 2359 2137 1677 1022 713 158 4 0 0 0 0 0 0 3 99 61 56 48 10 0 0 0 0 0 0 0 0 0 0 0 0 0 0 0 0 0 0 0
2217 2557 2783 2854 2690 2508 2307 2033 1514 909 554 136 2 0 0 0 0 0 0 0 7 70 47 1 0 0 0 0 0 0 0 0 0 0 0 0 0 0 0 0 0 0 0
2349 2416 2558 2903 2789 2672 2484 2207 1912 1239 999 392 143 0 0 0 0 0 0 0 0 0 71 3 0 0 0 0 0 0 0 0 0 0 0 0 0 0 0 0 0 0 0
2439 2394 2457 2783 2836 2811 2661 2432 2172 1941 1166 830 411 68 0 0 0 0 0 0 0 0 50 37 0 0 0 0 0 0 0 0 0 0 0 0 0 0 0 0 0 0 0
2662 2782 2714 2557 2668 2822 2763 2597 2357 2085 1663 1076 662 320 0 0 0 0 0 0 0 0 6 24 7 0 0 0 0 0 0 0 0 0 0 0 0 0 0 0 0 0 0
2660 2856 2822 2728 2633 2635 2660 2714 2492 2194 1758 1223 693 152 28 0 0 0 0 0 0 0 0 2 2 0 0 0 0 0 0 0 0 0 0 0 0 0 0 0 0 0 0
3070 3124 3054 2985 2918 2731 2369 2150 2416 2369 1583 724 155 46 20 0 0 0 0 0 0 0 0 0 0 0 0 0 0 0 0 0 0 0 0 0 0 0 0 0 0 0 0
3765 3568 3558 3386 3234 3133 2544 1753 1567 1805 607 73 0 13 36 22 0 0 0 0 0 0 0 0 0 0 0 0 0 0 0 0 0 0 0 0 0 0 0 0 0 0 0
3854 3813 3817 3676 3545 3534 2898 1449 965 17 77 0 17 0 99 64 0 0 0 0 0 0 0 0 0 0 0 0 0 0 0 0 0 0 0 0 0 0 0 0 0 0 0
3354 3769 3691 3645 3330 3723 2646 964 861 459 224 3 56 0 34 22 0 0 0 0 0 0 0 0 0 0 0 0 0 0 0 0 0 0 0 0 0 0 0 0 0 0 0
2464 3207 3277 3558 3524 3365 2216 897 739 603 387 270 87 0 0 3 0 0 0 0 0 0 0 0 0 0 0 0 0 0 0 0 0 0 0 0 0 0 0 0 0 0 0

GFSMA_con_mlcape_339.txt.gz
CAPE
1224 1252 1430 1039 986 1074 1162 763 653 493 865 495 258 147 143 223 70 172 107 31 33 115 705 822 838 892 656 664 564 612 638 597 406 737 734 794 785 818 705 1024 897 973 1098
1451 1271 1511 563 907 647 438 809 997 996 1016 777 745 483 318 383 452 411 451 61 80 152 625 610 570 596 442 583 638 474 573 617 692 427 710 800 828 618 880 799 954 932 820
1482 1486 1051 1344 799 769 1029 800 960 650 678 674 886 1031 770 884 809 573 264 53 169 174 341 59 37 312 378 314 381 374 413 771 763 742 719 706 770 926 671 744 779 949 979
1232 1452 1528 1231 868 806 58 8 214 466 325 529 854 752 989 824 839 972 192 74 114 142 61 142 73 203 107 207 245 285 308 572 640 784 817 747 788 893 775 658 789 889 825
2165 1917 1656 1853 1173 364 190 446 302 500 674 383 464 688 926 674 412 234 181 106 179 182 152 99 85 40 58 173 263 129 144 315 395 444 484 634 789 834 776 839 850 673 545
2263 2235 1383 1730 1682 317 310 763 459 198 1095 786 991 866 496 120 425 493 567 281 325 331 454 241 82 49 17 54 12 5 115 116 219 288 371 365 418 428 435 443 524 616 479
2355 1797 1914 1587 1182 1309 1351 651 565 681 889 803 1212 967 845 1128 902 838 921 326 464 376 437 549 639 695 149 116 99 134 150 191 170 224 285 366 446 346 415 363 301 293 354
2442 2112 1799 1712 1549 1519 1332 837 206 381 625 962 727 614 322 205 229 341 354 478 631 681 597 738 740 671 345 163 22 0 0 0 0 14 50 129 154 107 122 125 97 110 146
2422 2510 2272 2036 2031 1570 1551 807 261 706 436 189 807 543 308 268 152 193 96 29 51 125 195 152 122 75 42 0 0 0 0 0 0 0 1 0 6 0 0 0 0 0 0
2558 2518 2497 2139 1902 1466 1365 479 190 467 983 220 157 424 456 257 714 138 196 21 6 12 2 0 0 0 0 0 0 0 0 0 0 0 0 0 0 0 0 0 0 0 0
2754 2542 2654 2239 2362 1381 1188 913 324 715 535 299 305 198 397 442 667 166 206 107 9 1 3 0 0 0 0 0 0 0 0 0 0 0 0 0 0 0 0 0 0 1 7
2816 2798 2539 2611 2425 1854 1246 850 656 684 861 839 564 377 329 213 235 388 353 223 19 15 22 2 0 0 0 0 0 0 0 0 0 0 0 0 0 0 0 0 0 1 2
2032 2854 2971 2747 2230 2424 1815 988 1203 1026 741 278 446 125 7 83 349 221 357 261 28 24 21 23 4 0 0 0 0 0 0 0 0 0 0 0 0 0 0 0 0 0 0
1544 2778 2980 2724 2427 2475 2172 1728 1050 602 335 290 194 192 47 0 1 26 238 91 108 51 43 42 9 1 0 0 0 0 0 0 0 0 0 0 0 0 0 0 0 0 0
1546 2315 2623 2681 2457 2599 2372 2004 1295 794 279 98 0 0 0 0 0 0 21 303 84 25 41 21 0 0 0 0 0 0 0 0 0 0 0 0 0 0 0 0 0 0 0
1696 2206 2799 2766 2775 2737 2597 2282 1592 1223 755 161 43 0 0 0 0 0 0 0 84 43 58 126 9 0 0 0 0 0 0 0 0 0 0 0 0 0 0 0 0 0 0
2320 2345 2860 3042 2940 2784 2670 2609 2211 1626 1429 570 322 11 0 0 0 0 0 0 0 3 31 32 7 0 0 0 0 0 0 0 0 0 0 0 0 0 0 0 0 0 0
2627 2799 2868 3108 3162 3061 2872 2768 2479 1745 1711 1204 714 263 7 0 0 0 0 0 0 0 0 88 16 0 0 0 0 0 0 0 1 0 0 0 0 0 0 0 0 0 0
2715 2770 3030 3036 3205 3203 3127 2894 2804 2456 1952 1690 1087 728 185 4 0 0 0 0 0 0 9 183 52 20 4 0 0 0 0 0 1 0 0 0 0 0 0 0 0 0 0
2942 3249 3295 3305 3149 3201 3188 2980 2813 2540 2340 1943 1558 1138 759 134 46 9 0 0 0 0 0 55 29 16 9 6 0 0 0 0 0 0 0 0 0 0 0 0 0 0 0
2916 3124 3384 3391 3279 3108 2924 3094 2981 2852 2449 2021 1667 1213 1022 484 77 23 0 0 0 0 0 0 7 16 7 10 0 0 0 0 0 0 0 0 0 0 0 0 0 0 0
3413 3383 3316 3414 3402 3156 2694 2366 2643 2727 1140 0 0 0 0 85 2 0 0 0 0 0 0 0 0 12 13 1 0 0 0 0 0 0 0 0 0 0 0 0 0 0 0
3947 4013 4019 3860 3691 3641 3247 2481 1797 128 0 0 0 0 0 0 76 0 0 0 0 0 0 0 0 0 0 0 0 0 0 0 0 0 0 0 0 0 0 0 0 0 0
3824 3843 4038 3811 3396 3232 3056 2797 1258 355 398 32 0 0 0 0 38 2 28 0 0 0 0 0 0 0 0 0 0 0 0 0 0 0 0 0 0 0 0 0 0 0 0
2187 2387 2770 3410 3395 3718 3273 2059 1229 682 529 353 0 0 0 19 150 3 0 0 0 0 0 0 0 0 0 0 0 0 0 0 0 0 0 0 0 0 0 0 0 0 0
1399 1135 1483 1784 2445 3037 2390 1997 1588 1140 784 528 240 0 0 8 63 6 0 0 0 0 0 0 0 0 0 0 0 0 0 0 0 0 0 0 0 0 0 0 0 0 0

GFSMA_con_mlcape_342.txt.gz
CAPE
1051 1228 1088 699 1042 729 450 437 389 448 254 335 117 135 137 241 143 112 45 37 106 742 892 921 817 663 682 528 580 549 649 316 538 731 810 799 841 832 946 986 839 1052 1184
1507 1475 981 808 740 793 457 422 472 621 781 542 510 461 126 161 31 44 92 74 51 225 736 666 772 909 585 671 573 557 624 634 435 458 689 613 587 609 719 531 705 955 805
1609 1378 1258 1071 294 809 979 711 1057 951 491 253 423 332 418 206 217 170 66 98 49 228 654 744 587 559 498 517 583 435 579 519 722 633 494 608 711 923 603 636 662 887 1055
930 1162 1228 1011 554 791 831 672 767 364 612 407 99 11 466 289 504 314 74 98 129 135 44 77 49 328 455 403 409 489 468 555 768 929 834 657 685 928 591 755 805 866 922
1884 1909 1446 1281 558 1031 245 405 536 605 446 185 418 502 296 306 390 215 59 64 181 144 125 77 61 89 158 291 290 298 212 339 500 521 723 789 777 731 785 765 690 637 543
2423 1593 1354 762 881 695 461 809 503 586 1247 290 342 155 161 205 211 379 255 95 140 108 150 79 80 87 130 397 245 86 86 135 284 389 461 428 481 621 530 484 464 527 571
2476 1958 1170 1133 1097 1472 852 459 467 485 395 660 226 288 126 124 342 564 471 198 275 439 230 183 150 121 74 157 1 21 48 184 164 232 362 372 368 540 357 402 342 270 261
2512 2046 1845 1653 1383 983 1110 594 297 538 986 870 393 409 196 232 164 198 358 392 361 228 261 312 248 193 192 187 39 0 0 0 0 29 73 326 474 327 204 97 13 3 4
2499 2217 2136 2048 2120 1371 1619 568 126 778 406 855 288 139 143 78 143 252 345 461 416 544 412 307 261 200 227 40 0 0 0 0 0 1 1 2 27 0 0 0 0 0 0
2494 2390 2248 2144 1959 1810 1595 536 117 470 852 649 680 728 244 213 107 49 72 25 156 67 22 24 0 0 5 0 0 0 0 0 0 0 0 0 0 0 0 0 0 0 0
2625 2221 2408 2086 2366 1662 1247 927 362 228 912 495 170 465 268 361 398 132 57 14 1 0 0 0 0 0 0 0 0 0 0 0 0 0 0 0 0 0 0 0 0 2 9
1884 2201 2256 2074 2087 2070 1438 911 723 681 867 975 628 540 221 143 412 267 311 52 15 0 3 0 0 0 0 0 0 0 0 0 0 0 0 0 0 0 0 0 0 0 0
1738 2332 2249 2774 2258 2407 2072 1330 1057 1258 900 269 655 164 372 206 306 53 352 170 7 13 4 0 0 0 0 0 0 0 0 0 0 0 0 0 0 0 0 0 0 0 0
2592 2245 2044 2496 2421 2295 2411 1952 1611 1118 824 600 359 148 223 183 201 275 580 285 63 20 13 0 0 0 0 0 0 0 0 0 0 0 0 0 0 0 0 0 0 0 0
1988 1984 2492 2593 2475 2582 2396 2310 1537 1211 824 483 155 0 0 0 0 24 347 90 24 27 18 18 0 0 0 0 0 0 0 0 0 0 0 0 0 0 0 0 0 0 0
1796 2621 2831 2753 2575 2760 2558 2452 2236 1381 917 617 144 58 0 0 0 0 0 242 158 85 25 48 22 0 0 0 0 0 0 0 0 0 0 0 0 0 0 0 0 0 0
2445 2452 2658 3011 3045 2789 2646 2562 2272 2153 1289 668 447 108 15 0 0 0 0 0 0 26 81 144 83 0 0 0 0 0 0 0 0 0 0 0 0 0 0 0 0 0 0
3030 2791 3141 3198 3257 3360 3047 2718 2692 2187 1930 1635 806 472 133 8 0 0 0 0 0 0 26 72 15 0 0 0 0 0 0 0 0 0 0 0 0 0 0 0 0 0 0
2901 3167 3236 3349 3578 3655 3534 3228 2901 2612 2326 2086 1673 1125 744 133 29 0 0 0 0 0 8 56 0 0 0 0 0 0 0 0 5 0 0 0 0 0 0 0 0 0 0
3009 3493 3431 3548 3445 3477 3574 3444 3221 2916 2655 1341 366 152 500 557 117 25 0 0 0 0 0 21 17 1 0 0 0 0 0 0 0 0 0 0 0 0 0 0 0 0 0
3417 3422 3477 3790 3617 3649 3305 3342 3415 3032 184 0 0 0 0 0 31 109 63 0 0 0 0 0 23 20 0 0 0 0 0 0 0 0 0 0 0 0 0 0 0 0 0
3342 3440 3415 3471 3610 3708 3302 2867 2747 419 0 1 4 0 0 7 0 42 26 0 0 0 0 4 0 10 0 0 0 0 0 0 0 0 0 0 0 0 0 0 0 0 0
3435 3408 3330 3208 3137 3006 2906 2353 1144 0 8 75 172 0 0 0 0 49 14 0 0 0 0 0 14 8 29 0 0 0 0 0 0 0 0 0 0 0 0 0 0 0 0
3514 3684 3650 3694 3458 3696 3313 2445 1537 543 419 343 232 88 1 0 0 0 6 35 16 0 0 0 0 0 5 22 0 0 0 0 0 0 0 0 0 0 0 0 0 0 0
2272 2242 2218 2126 2825 3382 3182 2259 1684 1080 607 418 141 0 3 0 0 0 0 7 2 0 0 0 0 0 0 0 0 0 0 0 0 0 0 0 0 0 0 0 0 0 0
1665 2152 793 955 801 1723 1859 1768 1633 1610 1200 900 577 219 15 0 0 1 0 0 0 0 0 0 0 0 0 0 0 0 0 0 0 0 0 0 0 0 0 0 0 0 0

GFSMA_con_mlcape_345.txt.gz
CAPE
232 303 589 651 356 183 96 385 344 343 311 249 212 66 4 20 73 43 139 156 507 774 753 647 506 711 764 838 886 721 301 278 504 653 638 648 712 756 961 1013 909 1010 1150
858 883 581 585 618 472 201 79 243 252 234 356 161 258 49 83 95 72 22 85 420 984 974 940 786 708 717 648 644 614 669 371 318 572 523 702 542 669 618 552 871 991 924
1063 1066 891 741 611 633 594 276 514 416 182 217 186 194 258 101 100 88 27 29 126 564 759 775 882 971 747 736 788 607 745 511 599 312 366 692 615 601 430 763 692 834 952
1332 808 1033 1124 337 755 668 452 719 250 142 115 69 23 196 150 100 93 61 76 33 156 513 779 614 517 590 567 556 501 468 469 578 590 571 354 356 566 691 594 558 543 606
1218 1070 984 978 1199 1051 665 743 673 265 202 163 106 33 193 238 167 82 84 99 88 80 47 83 50 156 364 554 556 677 562 488 468 410 447 648 676 486 576 477 456 471 444
1094 214 525 1019 1170 888 592 537 325 612 144 133 194 152 154 145 100 63 55 87 143 138 97 80 43 25 31 102 315 357 163 226 343 392 359 459 375 362 512 591 598 572 458
1619 1109 2 1137 920 1022 919 288 847 219 323 240 154 51 81 100 129 278 177 138 93 97 95 89 75 26 9 77 97 28 24 139 154 323 331 280 296 376 331 353 327 279 262
1779 1366 1199 1246 594 28 976 425 300 424 210 278 126 107 62 74 140 175 172 129 207 331 318 193 227 90 26 59 2 112 198 231 228 166 91 303 394 347 381 265 79 5 0
1664 381 735 1288 1142 1162 1130 416 396 612 235 336 175 48 31 1 77 161 250 269 287 181 203 208 171 95 82 88 45 8 0 0 0 13 22 76 87 21 0 0 0 0 0
2369 1581 1754 1884 1715 1513 1201 511 146 764 697 326 447 249 183 7 0 36 159 308 231 252 111 94 86 79 9 0 0 0 0 0 0 0 0 0 0 0 0 0 0 0 0
2322 2290 2088 1809 2062 1641 1280 364 242 325 729 338 153 483 228 104 1 0 0 93 117 51 9 0 0 0 0 0 0 0 0 0 0 0 0 0 0 0 0 0 0 0 5
1101 1912 2292 2005 1970 1593 1070 636 452 432 555 588 447 140 210 137 180 53 31 0 0 0 0 0 0 0 0 0 0 0 0 0 0 0 0 0 0 0 0 0 0 0 0
1108 1270 1987 1976 1431 1888 1639 1067 658 524 481 208 535 73 259 80 229 100 123 13 0 0 0 0 0 0 0 0 0 0 0 0 0 0 0 0 0 0 0 0 0 0 0
1853 1863 2107 1794 2092 2042 2036 1491 1200 740 772 481 100 150 8 88 179 119 198 80 7 7 2 0 0 0 0 0 0 0 0 0 0 0 0 0 0 0 0 0 0 0 0
1775 994 1252 1826 2237 2193 2073 1986 1486 1190 862 660 310 0 0 0 0 0 140 86 17 1 0 0 0 0 0 0 0 0 0 0 0 0 0 0 0 0 0 0 0 0 0
1580 1040 1449 1873 2436 2526 2286 2031 1758 1324 843 441 152 0 0 0 0 0 219 117 14 0 0 5 0 0 0 0 0 0 0 0 0 0 0 0 0 0 0 0 0 0 0
2354 1994 2281 2396 2455 2489 2357 2096 1868 1811 1429 722 404 181 177 2 0 0 0 11 67 28 7 5 0 0 0 0 0 0 0 0 0 0 0 0 0 0 0 0 0 0 0
2180 2333 2805 2639 2683 2888 2406 2085 1953 1858 1692 1115 631 328 218 25 0 0 0 0 0 0 20 66 1 0 0 0 0 0 0 0 0 0 0 0 0 0 0 0 0 0 0
2326 2419 2525 2692 2656 2536 2988 2734 2347 2141 1862 512 266 98 37 39 74 22 4 0 0 0 0 40 17 0 0 0 0 0 0 0 0 0 0 0 0 0 0 0 0 0 0
2791 2592 2630 2742 2810 2882 2880 2841 2915 2328 401 3 3 0 0 0 2 37 48 16 0 0 0 8 10 0 0 0 0 0 0 0 0 0 0 0 0 0 0 0 0 0 0
2926 2815 2912 3102 3287 3207 3102 2962 2780 648 0 0 0 8 2 0 0 35 46 18 21 0 0 0 2 0 0 0 0 0 0 0 0 0 0 0 0 0 0 0 0 0 0
2796 2816 2735 2974 2969 2980 2894 2007 524 1 0 0 0 32 0 0 0 0 10 32 50 29 0 0 16 54 33 2 0 0 0 0 0 0 0 0 0 0 0 0 0 0 0
3253 3098 2916 2869 2719 2645 2706 1853 741 502 70 0 0 0 0 0 0 0 0 8 51 0 0 0 10 8 63 61 0 0 0 0 0 0 0 0 0 0 0 0 0 0 0
3393 3424 3272 3037 2835 2682 2365 2056 1775 778 525 382 0 0 1 0 0 0 0 0 2 0 0 0 5 7 28 46 2 0 0 0 0 0 0 0 0 0 0 0 0 0 0
1461 1138 1524 1595 1019 1370 2224 1565 1151 761 849 927 477 45 2 0 0 0 0 0 0 11 3 8 0 0 0 0 8 0 0 0 0 0 0 0 0 0 0 0 0 0 0
916 1606 1067 1240 1212 1119 1305 1149 836 878 741 562 547 423 205 85 2 0 0 0 0 3 0 1 0 0 0 0 29 0 0 0 0 0 0 0 0 0 0 0 0 0 0